Location: Artiguedieu
(43.5000°N, 0.5454°E)
Time: 06:35:45
(UTC+00:00)

Transit 4A - Visible Passes

Search period start: 31 July 2021 00:00
Search period end: 10 August 2021 00:00
Orbit: 872 x 972 km, 66.8° (Epoch: 30 July)

Date Brightness Start Highest point End Pass type
(mag) Time Alt. Az. Time Alt. Az. Time Alt. Az.
31 Jul 7.6 00:13:07 87° ESE 00:13:07 87° ESE 00:18:57 10° NNE visible
31 Jul 9.7 01:56:36 12° W 02:00:11 21° NW 02:04:29 10° N visible
31 Jul 9.5 22:38:26 18° E 22:38:26 18° E 22:40:49 10° ENE visible
01 Aug 7.9 00:21:55 63° W 00:22:24 66° WNW 00:28:14 10° NNE visible
01 Aug 10.1 02:06:26 10° WNW 02:09:54 16° NW 02:13:22 10° N visible
01 Aug 9.0 22:47:11 27° E 22:47:11 27° E 22:50:44 10° NE visible
02 Aug 8.5 00:30:39 41° W 00:31:48 46° NW 00:37:25 10° NNE visible
02 Aug 10.2 02:17:25 10° NW 02:19:43 12° NNW 02:22:00 10° N visible
02 Aug 8.4 22:55:53 41° E 22:55:53 41° E 23:00:21 10° NE visible
03 Aug 9.1 00:39:21 27° W 00:41:17 33° NW 00:46:32 10° NNE visible
03 Aug 7.8 23:04:31 65° E 23:04:31 65° E 23:09:49 10° NE visible
04 Aug 9.6 00:47:59 17° W 00:50:51 25° NW 00:55:35 10° NNE visible
04 Aug 9.7 21:29:37 14° E 21:29:37 14° E 21:31:02 10° ENE visible
04 Aug 7.7 23:13:05 81° W 23:13:16 83° WNW 23:19:09 10° NNE visible
05 Aug 10.0 00:56:33 10° W 01:00:31 19° NW 01:04:33 10° N visible
05 Aug 9.1 21:38:06 22° E 21:38:06 22° E 21:41:16 10° NE visible
05 Aug 8.2 23:21:33 50° W 23:22:37 58° NW 23:28:23 10° NNE visible
06 Aug 10.3 01:07:11 10° WNW 01:10:16 14° NNW 01:13:21 10° N visible
06 Aug 8.5 21:46:27 35° E 21:46:27 35° E 21:51:03 10° NE visible
06 Aug 8.8 23:29:54 30° W 23:32:03 41° NW 23:37:33 10° NNE visible
07 Aug 10.5 01:18:25 10° NW 01:20:06 11° NNW 01:21:47 10° N visible
07 Aug 7.8 21:54:39 53° SE 21:54:57 53° ESE 22:00:37 10° NE visible
07 Aug 9.4 23:38:05 17° W 23:41:33 30° NW 23:46:39 10° NNE visible
08 Aug 9.6 20:19:12 11° E 20:19:12 11° E 20:20:37 10° E visible
08 Aug 7.6 22:02:36 50° SSW 22:04:11 79° ESE 22:10:01 10° NNE visible
08 Aug 9.9 23:46:40 10° W 23:51:10 22° NW 23:55:40 10° N visible
09 Aug 9.1 20:26:47 18° ESE 20:27:47 18° ESE 20:31:38 10° ENE visible
09 Aug 7.9 22:10:10 27° SW 22:13:29 73° WNW 22:19:19 10° NNE visible
